AAL1958 SUMU-SABE

Flight info

Callsign AAL1958
Flight time 0h 31m
Altitude 16000
Route DAGUS UGIMI UGIMI8R
Aircraft B738/M-VGDW/C

Departure

Time 2026-05-08 20:46
Airport Carrasco General Cesáreo L. Berisso International Airport (SUMU)

Arrival

Time 2026-05-08 21:17
Airport Aeroparque Jorge Newbery (SABE)
Time Latitude Longitude Altitude Speed Heading
2026-05-08 20:41 -34.83631 -56.01792 76 ft 0 kts 143°
2026-05-08 20:42 -34.83636 -56.01788 76 ft 2 kts 151°
2026-05-08 20:43 -34.83645 -56.01783 76 ft 1 kts 167°
2026-05-08 20:43 -34.83671 -56.01798 75 ft 12 kts 235°
2026-05-08 20:43 -34.83680 -56.01849 75 ft 8 kts 285°
2026-05-08 20:43 -34.83656 -56.01884 75 ft 8 kts 344°
2026-05-08 20:44 -34.83522 -56.01801 81 ft 29 kts 45°
2026-05-08 20:44 -34.83378 -56.01819 84 ft 28 kts 322°
2026-05-08 20:44 -34.83193 -56.01961 82 ft 25 kts 12°
2026-05-08 20:44 -34.83032 -56.01749 88 ft 47 kts 50°
2026-05-08 20:45 -34.82835 -56.01423 98 ft 38 kts 70°
2026-05-08 20:45 -34.82760 -56.01269 103 ft 28 kts 55°
2026-05-08 20:45 -34.82712 -56.01212 104 ft 8 kts 254°
2026-05-08 20:45 -34.82828 -56.01428 98 ft 78 kts 233°
2026-05-08 20:46 -34.83370 -56.02302 143 ft 170 kts 236°
2026-05-08 20:46 -34.84125 -56.03480 1181 ft 187 kts 234°
2026-05-08 20:46 -34.84868 -56.04850 2269 ft 207 kts 248°
2026-05-08 20:46 -34.85141 -56.06533 3553 ft 217 kts 271°
2026-05-08 20:47 -34.85083 -56.08550 4101 ft 269 kts 272°
2026-05-08 20:47 -34.85027 -56.11035 4745 ft 311 kts 270°
2026-05-08 20:47 -34.85311 -56.13524 6672 ft 300 kts 253°
2026-05-08 20:47 -34.85925 -56.15698 8738 ft 277 kts 252°
2026-05-08 20:48 -34.86456 -56.18042 9323 ft 303 kts 258°
2026-05-08 20:48 -34.86784 -56.20467 11005 ft 286 kts 260°
2026-05-08 20:48 -34.87090 -56.22650 12904 ft 257 kts 260°
2026-05-08 20:48 -34.87500 -56.24730 13865 ft 263 kts 254°
2026-05-08 20:49 -34.88014 -56.26979 14285 ft 289 kts 256°
2026-05-08 20:49 -34.88461 -56.29440 14836 ft 308 kts 258°
2026-05-08 20:49 -34.88919 -56.32100 15207 ft 332 kts 258°
2026-05-08 20:49 -34.89402 -56.34888 16012 ft 340 kts 258°
2026-05-08 20:50 -34.89885 -56.37717 16837 ft 345 kts 258°
2026-05-08 20:50 -34.90365 -56.40550 17578 ft 344 kts 258°
2026-05-08 20:50 -34.90854 -56.43446 17682 ft 352 kts 258°
2026-05-08 20:50 -34.91351 -56.46397 17691 ft 353 kts 258°
2026-05-08 20:51 -34.91839 -56.49295 17696 ft 349 kts 258°
2026-05-08 20:51 -34.92319 -56.52160 17696 ft 349 kts 258°
2026-05-08 20:51 -34.92808 -56.55081 17695 ft 349 kts 258°
2026-05-08 20:51 -34.93291 -56.57977 17695 ft 350 kts 258°
2026-05-08 20:52 -34.93769 -56.60843 17692 ft 347 kts 258°
2026-05-08 20:52 -34.94253 -56.63756 17694 ft 352 kts 258°
2026-05-08 20:52 -34.94744 -56.66707 17695 ft 351 kts 259°
2026-05-08 20:52 -34.95230 -56.69633 17696 ft 351 kts 259°
2026-05-08 20:53 -34.95711 -56.72537 17696 ft 351 kts 259°
2026-05-08 20:53 -34.96191 -56.75439 17696 ft 351 kts 259°
2026-05-08 20:53 -34.96673 -56.78353 17696 ft 352 kts 259°
2026-05-08 20:53 -34.97155 -56.81278 17696 ft 352 kts 259°
2026-05-08 20:54 -34.97520 -56.84222 17686 ft 352 kts 269°
2026-05-08 20:54 -34.97139 -56.87166 17705 ft 354 kts 285°
2026-05-08 20:54 -34.96394 -56.90020 17697 ft 354 kts 285°
2026-05-08 20:54 -34.95734 -56.92907 17699 ft 354 kts 283°
2026-05-08 20:55 -34.95132 -56.95822 17703 ft 355 kts 282°
2026-05-08 20:55 -34.94532 -56.98729 17706 ft 355 kts 282°
2026-05-08 20:55 -34.93938 -57.01619 17710 ft 356 kts 282°
2026-05-08 20:55 -34.93343 -57.04548 17713 ft 356 kts 282°
2026-05-08 20:56 -34.92744 -57.07505 17709 ft 357 kts 282°
2026-05-08 20:56 -34.92152 -57.10437 17278 ft 362 kts 282°
2026-05-08 20:56 -34.91558 -57.13372 16652 ft 357 kts 282°
2026-05-08 20:56 -34.90970 -57.16275 16030 ft 352 kts 283°
2026-05-08 20:57 -34.90389 -57.19143 15407 ft 349 kts 283°
2026-05-08 20:57 -34.89811 -57.21995 14780 ft 345 kts 283°
2026-05-08 20:57 -34.89241 -57.24807 14152 ft 339 kts 283°
2026-05-08 20:57 -34.88684 -57.27549 13602 ft 335 kts 283°
2026-05-08 20:58 -34.88114 -57.30352 13365 ft 345 kts 283°
2026-05-08 20:58 -34.87531 -57.33219 12844 ft 352 kts 283°
2026-05-08 20:58 -34.86945 -57.36090 12291 ft 348 kts 283°
2026-05-08 20:58 -34.86365 -57.38932 11741 ft 345 kts 283°
2026-05-08 20:59 -34.85791 -57.41741 11193 ft 342 kts 283°
2026-05-08 20:59 -34.85223 -57.44516 10646 ft 339 kts 283°
2026-05-08 20:59 -34.84654 -57.47295 10081 ft 336 kts 283°
2026-05-08 20:59 -34.84090 -57.50042 9451 ft 333 kts 283°
2026-05-08 21:00 -34.83538 -57.52729 8831 ft 329 kts 283°
2026-05-08 21:00 -34.82984 -57.55424 8208 ft 325 kts 283°
2026-05-08 21:00 -34.82453 -57.58004 7901 ft 309 kts 283°
2026-05-08 21:00 -34.81943 -57.60475 7645 ft 294 kts 283°
2026-05-08 21:01 -34.81458 -57.62824 7385 ft 277 kts 283°
2026-05-08 21:01 -34.81001 -57.65031 7136 ft 257 kts 284°
2026-05-08 21:01 -34.80570 -57.67127 6893 ft 257 kts 284°
2026-05-08 21:01 -34.80140 -57.69210 6647 ft 256 kts 284°
2026-05-08 21:02 -34.79701 -57.71322 6395 ft 255 kts 284°
2026-05-08 21:02 -34.79269 -57.73395 5940 ft 258 kts 283°
2026-05-08 21:02 -34.78837 -57.75486 5363 ft 254 kts 284°
2026-05-08 21:02 -34.78414 -57.77529 4806 ft 248 kts 284°
2026-05-08 21:03 -34.77989 -57.79573 4295 ft 245 kts 284°
2026-05-08 21:03 -34.77589 -57.81493 4038 ft 227 kts 284°
2026-05-08 21:03 -34.77217 -57.83287 3794 ft 208 kts 283°
2026-05-08 21:03 -34.76875 -57.84925 3526 ft 193 kts 283°
2026-05-08 21:04 -34.76556 -57.86454 3272 ft 181 kts 284°
2026-05-08 21:04 -34.76256 -57.87898 3016 ft 171 kts 283°
2026-05-08 21:04 -34.75971 -57.89258 2974 ft 169 kts 283°
2026-05-08 21:04 -34.75679 -57.90656 2966 ft 169 kts 284°
2026-05-08 21:05 -34.75384 -57.92058 2967 ft 172 kts 283°
2026-05-08 21:05 -34.75098 -57.93450 2967 ft 165 kts 285°
2026-05-08 21:05 -34.74822 -57.94781 2974 ft 166 kts 286°
2026-05-08 21:05 -34.74527 -57.96128 2950 ft 156 kts 282°
2026-05-08 21:06 -34.74266 -57.97416 2978 ft 162 kts 285°
2026-05-08 21:06 -34.74000 -57.98715 2968 ft 155 kts 284°
2026-05-08 21:06 -34.73706 -58.00048 2960 ft 166 kts 284°
2026-05-08 21:06 -34.73446 -58.01317 2956 ft 143 kts 284°
2026-05-08 21:07 -34.73199 -58.02474 2971 ft 140 kts 287°
2026-05-08 21:07 -34.72956 -58.03609 2961 ft 135 kts 283°
2026-05-08 21:07 -34.72723 -58.04706 2980 ft 139 kts 287°
2026-05-08 21:07 -34.72494 -58.05841 2954 ft 137 kts 286°
2026-05-08 21:08 -34.72248 -58.06969 2966 ft 142 kts 284°
2026-05-08 21:08 -34.72019 -58.08116 2956 ft 136 kts 282°
2026-05-08 21:08 -34.71786 -58.09241 2970 ft 138 kts 282°
2026-05-08 21:08 -34.71538 -58.10393 2971 ft 139 kts 284°
2026-05-08 21:09 -34.71282 -58.11526 2979 ft 141 kts 285°
2026-05-08 21:09 -34.71058 -58.12677 2964 ft 137 kts 281°
2026-05-08 21:09 -34.70817 -58.13854 2975 ft 142 kts 285°
2026-05-08 21:09 -34.70568 -58.14972 2977 ft 138 kts 284°
2026-05-08 21:10 -34.70187 -58.16036 2968 ft 138 kts 306°
2026-05-08 21:10 -34.69570 -58.16964 2982 ft 146 kts 300°
2026-05-08 21:10 -34.69055 -58.17960 2963 ft 137 kts 300°
2026-05-08 21:10 -34.68502 -58.18957 2968 ft 142 kts 303°
2026-05-08 21:11 -34.67952 -58.19954 2817 ft 146 kts 299°
2026-05-08 21:11 -34.67404 -58.20952 2623 ft 137 kts 302°
2026-05-08 21:11 -34.66888 -58.21859 2482 ft 126 kts 301°
2026-05-08 21:11 -34.66407 -58.22737 2538 ft 129 kts 301°
2026-05-08 21:12 -34.65892 -58.23672 2484 ft 133 kts 302°
2026-05-08 21:12 -34.65357 -58.24602 2495 ft 134 kts 302°
2026-05-08 21:12 -34.64867 -58.25550 2466 ft 133 kts 298°
2026-05-08 21:12 -34.64361 -58.26527 2276 ft 139 kts 300°
2026-05-08 21:13 -34.63800 -58.27477 2078 ft 132 kts 302°
2026-05-08 21:13 -34.63313 -58.28347 1872 ft 118 kts 299°
2026-05-08 21:13 -34.62903 -58.29163 1662 ft 111 kts 295°
2026-05-08 21:13 -34.62473 -58.29951 1438 ft 116 kts 304°
2026-05-08 21:14 -34.61950 -58.30710 1422 ft 119 kts 306°
2026-05-08 21:14 -34.61431 -58.31473 1327 ft 118 kts 303°
2026-05-08 21:14 -34.60981 -58.32334 1169 ft 126 kts 294°
2026-05-08 21:14 -34.60580 -58.33240 1146 ft 115 kts 295°
2026-05-08 21:15 -34.60131 -58.34063 951 ft 117 kts 303°
2026-05-08 21:15 -34.59631 -58.34811 877 ft 116 kts 298°
2026-05-08 21:15 -34.59195 -58.35656 893 ft 118 kts 298°
2026-05-08 21:15 -34.58747 -58.36486 857 ft 119 kts 302°
2026-05-08 21:16 -34.58283 -58.37344 724 ft 122 kts 299°
2026-05-08 21:16 -34.57826 -58.38160 606 ft 113 kts 297°
2026-05-08 21:16 -34.57394 -58.38957 372 ft 113 kts 301°
2026-05-08 21:16 -34.56952 -58.39726 234 ft 108 kts 298°
2026-05-08 21:17 -34.56534 -58.40469 76 ft 104 kts 296°
2026-05-08 21:17 -34.56187 -58.41127 28 ft 65 kts 300°
2026-05-08 21:17 -34.56059 -58.41345 27 ft 16 kts 318°
2026-05-08 21:17 -34.55976 -58.41347 27 ft 0 kts 24°
2026-05-08 21:18 -34.55974 -58.41346 27 ft 3 kts 24°
2026-05-08 21:18 -34.55895 -58.41330 27 ft 15 kts 354°
2026-05-08 21:18 -34.55869 -58.41333 27 ft 0 kts 353°
2026-05-08 21:18 -34.55843 -58.41324 27 ft 10 kts 34°
2026-05-08 21:19 -34.55799 -58.41268 27 ft 7 kts 39°
2026-05-08 21:19 -34.55794 -58.41262 27 ft 0 kts 39°